This demonstration page uses our WeatherBlox Daily Observations layout. Learn more.

39.01783, -85.05884

Hourly Observations for November 25, 2019

Temp ( °F °C ) Dew Point ( °F °C ) Humidity (%) Winds ( mph kmh ) Pressure ( in mb ) Visibility ( mi km ) Precip ( " mm )
12:52 am 00:52 Clear 37 2.8 32 0 82 82 SSW 8 13 29.78 1008 10 16.0934 0 0
1:52 am 01:52 Clear 38 3.3 33 0.6 83 83 SSW 8 13 29.78 1008 10 16.0934 0 0
2:52 am 02:52 Mostly Cloudy 38 3.3 33 0.6 83 83 SSW 8 13 29.78 1009 10 16.0934 0 0
3:52 am 03:52 Mostly Clear 38 3.3 33 0.6 83 83 SSW 9 15 29.78 1009 10 16.0934 0 0
4:52 am 04:52 Partly Cloudy 37 2.8 33 0.6 86 86 S 10 17 29.77 1008 10 16.0934 0 0
5:52 am 05:52 Mostly Clear 37 2.8 33 0.6 86 86 SSW 10 17 29.77 1008 10 16.0934 0 0
6:52 am 06:52 Mostly Clear 36 2.2 33 0.6 89 89 S 8 13 29.78 1008 9 14.48406 0 0
7:52 am 07:52 Mostly Sunny 36 2.2 33 0.6 89 89 S 9 15 29.78 1008 8 12.87472 0 0
8:52 am 08:52 Mostly Sunny 39 3.9 34 1.1 82 82 SSW 12 19 29.79 1009 10 16.0934 0 0
9:52 am 09:52 Mostly Sunny 43 6.1 36 2.2 76 76 SSW 10 17 29.8 1009 10 16.0934 0 0
10:52 am 10:52 Mostly Sunny 47 8.3 38 3.3 71 71 SSW 12 19 29.8 1009 10 16.0934 0 0
11:52 am 11:52 Partly Cloudy 51 10.6 39 3.9 64 64 SSW 8 13 29.78 1009 10 16.0934 0 0
12:52 pm 12:52 Mostly Cloudy 53 11.7 40 4.4 61 61 S 16 26 29.74 1007 10 16.0934 0 0
1:52 pm 13:52 Mostly Cloudy 57 13.9 40 4.4 53 53 S 16 26 29.73 1007 10 16.0934 0 0
2:52 pm 14:52 Mostly Cloudy 58 14.4 40 4.4 51 51 S 10 17 29.74 1007 10 16.0934 0 0
3:52 pm 15:52 Mostly Cloudy 57 13.9 38 3.3 49 49 SSW 15 24 29.74 1007 10 16.0934 0 0
4:52 pm 16:52 Partly Cloudy 55 12.8 38 3.3 53 53 SSW 8 13 29.75 1008 10 16.0934 0 0
5:52 pm 17:52 Partly Cloudy 50 10 38 3.3 63 63 S 5 7 29.76 1008 10 16.0934 0 0
6:52 pm 18:52 Partly Cloudy 47 8.3 37 2.8 69 69 S 6 9 29.77 1008 10 16.0934 0 0
8:52 pm 20:52 Mostly Clear 49 9.4 38 3.3 66 66 S 12 19 29.78 1008 10 16.0934 0 0
9:52 pm 21:52 Mostly Clear 48 8.9 38 3.3 68 68 S 10 17 29.8 1009 10 16.0934 0 0
10:52 pm 22:52 Clear 46 7.8 37 2.8 71 71 SSW 7 11 29.81 1010 10 16.0934 0 0
11:52 pm 23:52 Clear 43 6.1 36 2.2 76 76 S 8 13 29.83 1010 10 16.0934 0 0

Powered by AerisWeather